Flag for Poland Weather past 2 weeks in Gdańsk, Poland

Now
64 °F

Sunny.


Feels Like: 64 °F
Forecast: 62 / 73 °F
Wind: 7 mph from South

Location: Gdansk-Rebiechowo

Current Time: Jul 7, 2015 at 9:49:13 PM

Latest Report: Jul 7, 2015 at 9:30 PM


Visibility: 10 mi

Pressure: 29.77 "Hg

Humidity: 78%

Dew point: 57 °F

Location of GdańskLocation

Historic Weather in Gdańsk — Graph

°F

Gdańsk temperature yesterday

Maximum temperature yesterday: 73 °F (at 6:00 AM)
Minimum temperature yesterday: 59 °F (at 11:00 PM)
Average temperature yesterday: 68 °F

Past Weeks' High & Low Weather Summary

 TemperatureHumidityPressure
High90 °F (Jul 5, 1:00 PM)100% (Jun 22, 11:30 PM)30.42 "Hg (Jun 22, 11:30 PM)
Low46 °F (Jun 27, 3:00 AM)25% (Jul 4, 12:00 PM)29.59 "Hg (Jun 23, 3:30 AM)
Average63 °F73%30.07 "Hg
* Reported Jun 22 8:00 PM — Jul 7 8:30 PM, Gdańsk, Weather by CustomWeather, © 2015

Note: Actual official high and low records may vary slightly from our data, if they occured in-between our weather recording intervals... More about our weather records

Advertising

Gdańsk weather history for previous 24 hours

 ConditionsComfort  
Time TempWeatherWind HumidityBarometerVisibility
8:30 PM
Tue, Jul 7
66 °FSunny.12 mph73%29.77 "Hg10 mi
8:00 PM66 °FSunny.10 mph73%29.80 "Hg10 mi
7:30 PM72 °FSunny.9 mph61%29.80 "Hg10 mi
7:00 PM77 °FSunny.5 mph51%29.80 "Hg10 mi
6:30 PM79 °FPassing clouds.6 mph42%29.83 "HgN/A
6:00 PM79 °FPassing clouds.9 mph39%29.83 "HgN/A
5:30 PM79 °FPassing clouds.9 mph39%29.83 "HgN/A
5:00 PM79 °FSunny.12 mph39%29.86 "Hg10 mi
4:30 PM79 °FPassing clouds.12 mph39%29.86 "HgN/A
4:00 PM79 °FPassing clouds.10 mph39%29.86 "HgN/A
3:30 PM77 °FPassing clouds.14 mph42%29.86 "HgN/A
3:00 PM77 °FPassing clouds.15 mph42%29.89 "HgN/A
2:30 PM77 °FPassing clouds.13 mph39%29.89 "HgN/A
2:00 PM75 °FPassing clouds.12 mph41%29.89 "HgN/A
1:30 PM73 °FSunny.15 mph47%29.92 "Hg10 mi
1:00 PM73 °FPassing clouds.13 mph44%29.92 "HgN/A
12:30 PM73 °FPassing clouds.16 mph44%29.92 "HgN/A
12:00 PM72 °FPassing clouds.16 mph47%29.92 "HgN/A
11:30 AM72 °FPassing clouds.15 mph50%29.92 "HgN/A
11:00 AM72 °FPassing clouds.15 mph47%29.95 "HgN/A
10:30 AM70 °FScattered clouds.15 mph53%29.95 "HgN/A
10:00 AM70 °FScattered clouds.14 mph57%29.95 "HgN/A
9:30 AM68 °FPassing clouds.13 mph60%29.95 "HgN/A
9:00 AM66 °FPassing clouds.13 mph64%29.95 "HgN/A
8:30 AM66 °FPassing clouds.10 mph64%29.98 "HgN/A
8:00 AM63 °FSunny.10 mph68%29.98 "Hg10 mi
7:30 AM61 °FPassing clouds.8 mph72%29.98 "HgN/A
7:00 AM59 °FSunny.9 mph77%29.98 "Hg10 mi
6:30 AM59 °FSunny.10 mph77%29.98 "Hg10 mi
6:00 AM59 °FSunny.9 mph77%29.98 "Hg10 mi
5:30 AM57 °FSunny.8 mph82%29.98 "Hg10 mi
5:00 AM57 °FClear.8 mph82%29.98 "Hg10 mi
4:30 AM57 °FClear.8 mph82%29.98 "Hg10 mi
4:00 AM57 °FClear.8 mph82%29.98 "Hg10 mi
3:30 AM57 °FClear.9 mph77%30.01 "Hg10 mi
3:00 AM57 °FClear.10 mph77%30.01 "Hg10 mi
2:30 AM59 °FPassing clouds.10 mph72%30.01 "HgN/A
2:00 AM59 °FClear.12 mph72%30.01 "Hg10 mi
1:30 AM59 °FClear.12 mph72%30.01 "Hg10 mi
1:00 AM59 °FClear.12 mph72%30.01 "Hg10 mi
12:30 AM59 °FClear.10 mph72%30.01 "Hg10 mi
12:00 AM57 °FClear.9 mph77%30.01 "Hg10 mi
11:30 PM
Mon, Jul 6
59 °FClear.9 mph72%30.01 "Hg10 mi
11:00 PM59 °FClear.12 mph72%30.01 "Hg10 mi
10:30 PM61 °FClear.10 mph68%30.04 "Hg10 mi
10:00 PM61 °FSunny.9 mph63%30.04 "Hg10 mi
9:30 PM63 °FSunny.10 mph59%30.01 "Hg10 mi
9:00 PM64 °FPassing clouds.13 mph56%30.01 "HgN/A
Weather by CustomWeather, © 2015

See weather overviewHow to use our weather pages